Torna al catalogo

KUIPER-00528

AttivoComunicazioniLEO
NORAD 69603·PAYLOAD·🇺🇸 United States

Lanciato Jun 17, 2026 da Guiana Space Centre

Loading…

Prossimi Passaggi (prossime 24 ore)

TLE

AggiornatoSource: CelesTrak SupGP

Epoca: Sep 14, 2026, 22:00 UTC

1 69603C 26140M   26257.91725694  .00001818  00000+0  23805-3 0  2577
2 69603  51.9036 341.3990 0000410  84.7255 313.5373 14.79923457    12

Traccia KUIPER-00528 in tempo reale con AllMySat

Download on the App Store